STARLINK-11528 [DTC] (62521 NORAD) Tracking and Keplerian Element Data

This shows tracking and keplerian element data for the satellite.

Feedback or suggestion? Click here.




ElementValue
Catalog62521
NameSTARLINK-11528 [DTC]
Epoch Orbit542
Epoch Day35.10023604
Epoch Year2025
RAAN313.9464
Inclination42.9965
Eccentricity0.0001509
Argument of Perigee266.9678
Mean Anonmoly93.1019
Mean Motion15.77856189
Decay Rate6.886E-05
L11 62521U 25004L 25035.10023604 .00006886 00000+0 42399-4 0 9996
L22 62521 42.9965 313.9464 0001509 266.9678 93.1019 15.77856189 5423



Live tracking and technical data element details for STARLINK-11528 [DTC] (NORAD 62521). STARLINK-11528 [DTC] can be tracked NOW for your location showing map with azimuth and elevation plus other details from your city location.







IsCatalogInMostPopularTable: catalog: 62521, numindb: 25
Update: records affected: 1



GetName: 62521 STARLINK-11528 [DTC]

Hit Count: updated at: Sun, 18 May 2025 22:14:28 GMT